"Pseudo-MPEC" for P10OeSy

Created 2019 Jun 15 19:09:06 UT using Find_Orb

Click here for an explanation of pseudo-MPECs

 
 Astrometry: 
     P10OeSy  C2019 05 06Hi'vInCvC[NSKAstrometry$w$Uyjn\mSMvK`EIdGlEDnA87fEMjF51
     P10OeSy  C2019 05 06v)HR\9,SE\X_(\redacted;#ONMjpn\.J#SwGOZp[/64oi3Rr4^OF51
     P10OeSy  C2019 05 24=2RkWH9m0dp=;Gv4\lwr'l:xgf*hHOyKBm[,cS[Ro\DF/KmK@ki-F52
     P10OeSy  C2019 05 24XE#gLkgQgZ2tw?PY?((VOe,BjLg33y26click;y`@mNTZRyR1s4mF52
     P10OeSy  C2019 05 24O:BnF^L,K9+]*hereG6FaWn51(7c'CNWv)LQL7iSC:l(Qv)hCkEkF52
     P10OeSy  C2019 05 28VsrtT;/Mx8SqD%.3X+N%3%!=mx.lihfor#:wq0S]Rrj#o1P(X-O7F51
     P10OeSy  C2019 05 28.F_a.QPw.Gk+!9x^kpNngxYqZuOg$@O%%631A0?h%`W^pc.DWOvjF51
     P10OeSy  C2019 05 28FV?OwCpMHu=\`^F+fZI$*2gNC%3=5Rl3Ob:R81hxJhXPEcqYfOcxF51
     P10OeSy |C2019 06 03ku3pb*`nvsD9gP+x],S+%$dFSMxJst7i\A)QqOdC%ovwSx]I+i(c807
     P10OeSy |C2019 06 03SNq[MuTG2w]-'hX]=C[vlWsy/WexplanationHoFQXS%)hR$vSjN807
     P10OeSy KC2019 06 097wUY0lwSMsE^Gyn$G=$Ru1X%Td]PrN$cK3B[Z?h-mhFng:Lh1PA`291
     P10OeSy KC2019 06 09;SeIqIiQXRFO8HZg;H3ci'528?Sy5`^WA8!rq-Oq\AQ+U$,dGgyY291

Station data:
(291) LPL/Spacewatch II  (N31.961669 W111.599905)  US/Arizona.  Observers J.
   V. Scotti, R. S. McMillan. 1.8-m f/2.7 reflector + CCD.
(807) Cerro Tololo Observatory, La Serena  (S30.169136 W70.805900)  Chile.
(F51) Pan-STARRS 1, Haleakala  (N20.707235 W156.255910)  US/Hawaii.
   Observers N. Primak, A. Schultz, S. Watters, J. Thiel, T. Goggia. Measurer
   PS1 Science Consortium. 1.8-m Ritchey-Chrétien + CCD.
(F52) Pan-STARRS 2, Haleakala  (N20.707384 W156.255910)  US/Hawaii. 1.8-m
   Ritchey-Chrétien + CCD.

Orbital elements:  P10OeSy
   Perihelion 2020 Jun 19.216060 +/- 0.0817 TT =  5:11:07 (JD 2459019.716060)
Epoch 2019 Jun  9.0 TT = JDT 2458643.5   Earth MOID: 0.6570   AutoNEOCP
M 226.12408214 +/- 0.032            (J2000 ecliptic)
n   0.35584849 +/- 3.5e-5           Peri.  308.39292 +/- 0.023
a   1.97223787 +/- 0.000129         Node    78.51009 +/- 0.0049
e   0.2019989 +/- 5.92e-5           Incl.   27.25724 +/- 0.006
P   2.77                   H 19.6   G  0.15   U  5.9  
q 1.57384791 +/- 3.96e-5    Q 2.37062784 +/- 0.000269
From 12 observations 2019 May 6-June 9; mean residual 0".10
Residuals in arcseconds: 
190506 F51  .04+  .04-    190524 F52  .05+  .07+    190603 807  .08-  .09-    
190506 F51  .04-  .02+    190528 F51  .08-  .10+    190603 807  .03+  .14-    
190524 F52  .13-  .10+    190528 F51  .28+  .09-    190609 291  .00   .20+    
190524 F52  .01-  .04+    190528 F51  .05-  .07-    190609 291  .00   .08-    

Ephemerides (geocentric):
Date (UTC) HH   RA              Dec         delta   r     elong  mag " sig PA
---- -- -- --  -------------   -----------  ------ ------ -----  --- ---- ---
2019 06 15 19  15 11 49.220   -04 10 58.50  1.3946 2.2731 140.6 23.0 .482 144
2019 06 15 20  15 11 46.656   -04 11 27.25  1.3949 2.2731 140.6 23.0 .484 144
2019 06 15 21  15 11 44.095   -04 11 56.02  1.3951 2.2730 140.5 23.0 .486 144
2019 06 15 22  15 11 41.538   -04 12 24.79  1.3953 2.2729 140.5 23.0 .489 144
2019 06 15 23  15 11 38.984   -04 12 53.58  1.3956 2.2729 140.5 23.0 .491 144
2019 06 16 00  15 11 36.433   -04 13 22.38  1.3958 2.2728 140.4 23.0 .493 144
2019 06 16 01  15 11 33.885   -04 13 51.20  1.3960 2.2728 140.4 23.0 .496 144
2019 06 16 02  15 11 31.341   -04 14 20.02  1.3963 2.2727 140.3 23.0 .498 144
2019 06 16 03  15 11 28.800   -04 14 48.86  1.3965 2.2727 140.3 23.0 .501 144
2019 06 16 04  15 11 26.262   -04 15 17.71  1.3968 2.2726 140.3 23.0 .503 144
2019 06 16 05  15 11 23.727   -04 15 46.58  1.3970 2.2725 140.2 23.0 .505 144
2019 06 16 06  15 11 21.195   -04 16 15.45  1.3972 2.2725 140.2 23.0 .508 144
2019 06 16 07  15 11 18.667   -04 16 44.34  1.3975 2.2724 140.1 23.0 .510 144
2019 06 16 08  15 11 16.142   -04 17 13.24  1.3977 2.2724 140.1 23.0 .512 143
2019 06 16 09  15 11 13.620   -04 17 42.15  1.3980 2.2723 140.0 23.0 .515 143
2019 06 16 10  15 11 11.101   -04 18 11.07  1.3982 2.2722 140.0 23.0 .517 143
2019 06 16 11  15 11 08.586   -04 18 40.01  1.3985 2.2722 140.0 23.0 .520 143
2019 06 16 12  15 11 06.074   -04 19 08.95  1.3987 2.2721 139.9 23.0 .522 143
2019 06 16 13  15 11 03.565   -04 19 37.91  1.3989 2.2721 139.9 23.0 .524 143
2019 06 16 14  15 11 01.059   -04 20 06.88  1.3992 2.2720 139.8 23.0 .527 143
2019 06 16 15  15 10 58.557   -04 20 35.87  1.3994 2.2719 139.8 23.0 .529 143
2019 06 16 16  15 10 56.058   -04 21 04.86  1.3997 2.2719 139.8 23.0 .532 143
2019 06 16 17  15 10 53.562   -04 21 33.87  1.3999 2.2718 139.7 23.0 .534 143
2019 06 16 18  15 10 51.070   -04 22 02.89  1.4002 2.2718 139.7 23.0 .537 143
2019 06 16 19  15 10 48.580   -04 22 31.92  1.4004 2.2717 139.6 23.0 .539 143
2019 06 16 20  15 10 46.094   -04 23 00.96  1.4006 2.2717 139.6 23.0 .542 143
2019 06 16 21  15 10 43.611   -04 23 30.02  1.4009 2.2716 139.5 23.0 .544 143
2019 06 16 22  15 10 41.132   -04 23 59.09  1.4011 2.2715 139.5 23.0 .546 143
2019 06 16 23  15 10 38.656   -04 24 28.16  1.4014 2.2715 139.5 23.0 .549 143
2019 06 17 00  15 10 36.183   -04 24 57.25  1.4016 2.2714 139.4 23.0 .551 143
2019 06 17 01  15 10 33.713   -04 25 26.36  1.4019 2.2714 139.4 23.0 .554 142
2019 06 17 02  15 10 31.247   -04 25 55.47  1.4021 2.2713 139.3 23.0 .556 142
2019 06 17 03  15 10 28.784   -04 26 24.60  1.4024 2.2712 139.3 23.0 .559 142
2019 06 17 04  15 10 26.324   -04 26 53.73  1.4026 2.2712 139.2 23.0 .561 142
2019 06 17 05  15 10 23.867   -04 27 22.88  1.4029 2.2711 139.2 23.0 .564 142
2019 06 17 06  15 10 21.414   -04 27 52.04  1.4031 2.2711 139.2 23.0 .566 142
2019 06 17 07  15 10 18.964   -04 28 21.21  1.4034 2.2710 139.1 23.0 .569 142
2019 06 17 08  15 10 16.517   -04 28 50.40  1.4036 2.2709 139.1 23.0 .571 142
2019 06 17 09  15 10 14.074   -04 29 19.59  1.4039 2.2709 139.0 23.0 .574 142
2019 06 17 10  15 10 11.634   -04 29 48.80  1.4041 2.2708 139.0 23.0 .576 142
2019 06 17 11  15 10 09.197   -04 30 18.02  1.4044 2.2708 139.0 23.0 .579 142
2019 06 17 12  15 10 06.764   -04 30 47.25  1.4046 2.2707 138.9 23.0 .581 142
2019 06 17 13  15 10 04.334   -04 31 16.49  1.4049 2.2706 138.9 23.0 .584 142
2019 06 17 14  15 10 01.907   -04 31 45.74  1.4051 2.2706 138.8 23.0 .587 142
2019 06 17 15  15 09 59.483   -04 32 15.00  1.4054 2.2705 138.8 23.0 .589 142
2019 06 17 16  15 09 57.063   -04 32 44.28  1.4056 2.2705 138.7 23.0 .592 142
2019 06 17 17  15 09 54.646   -04 33 13.56  1.4059 2.2704 138.7 23.0 .594 142
2019 06 17 18  15 09 52.233   -04 33 42.86  1.4061 2.2703 138.7 23.0 .597 142